Theta_e
299 302 302 302 302 304 302 303 303 302 302 304 303 305 303 304 300 299 299 300 300 300 302 303 304 303 302 302 302 302 301 300 301 299 296 296 296 296 298 300 294 292 294 297
300 300 300 299 301 303 301 301 301 301 301 303 300 299 298 299 300 299 301 300 300 299 297 299 302 301 300 301 301 301 301 300 299 299 297 297 296 296 294 295 292 292 293 296
298 298 298 300 301 302 302 302 301 301 300 299 298 299 298 297 297 298 298 299 297 296 295 294 296 299 299 299 299 300 300 299 298 297 298 297 295 294 294 293 291 291 292 295
299 298 298 298 299 301 301 301 301 301 301 301 297 299 296 297 297 296 296 294 293 292 291 290 292 297 298 298 298 298 298 298 298 297 299 297 294 292 292 292 292 292 291 294
298 298 297 298 299 299 300 299 300 301 301 299 298 297 296 296 297 297 297 297 294 291 290 289 291 295 298 298 298 298 298 297 296 297 298 296 293 293 292 291 291 290 290 293
298 293 296 298 295 298 298 297 297 295 296 299 297 298 301 296 298 298 298 297 293 291 291 295 296 296 296 298 297 297 296 296 296 295 296 296 293 292 291 290 290 290 289 292
297 295 293 295 297 297 297 298 303 304 302 304 294 296 302 298 296 296 296 293 292 292 293 295 295 294 293 294 295 295 294 294 294 294 294 293 293 292 292 291 290 290 289 290
298 298 294 294 297 300 298 301 307 308 301 299 294 298 298 296 295 294 293 291 291 290 291 293 295 293 293 293 293 293 293 292 292 292 292 292 292 292 291 291 291 290 289 289
300 300 291 291 292 295 298 300 304 305 297 305 300 296 296 295 295 293 292 290 291 291 291 290 289 292 293 293 292 292 292 291 292 292 291 291 291 291 291 291 290 290 289 289
297 299 291 290 291 292 296 298 303 304 304 306 302 296 299 296 295 293 292 291 292 293 291 289 288 288 291 292 293 292 292 292 291 291 291 291 291 291 290 290 290 289 289 289
297 300 293 291 293 296 294 297 299 302 305 306 298 299 295 296 295 293 291 291 292 291 290 288 287 287 288 290 291 292 291 291 291 291 291 290 290 290 290 290 289 289 289 288
298 300 299 293 289 288 290 297 302 303 299 297 299 299 291 292 291 291 290 292 291 290 289 287 286 286 286 287 289 290 290 290 290 290 290 290 290 289 289 289 289 289 288 288
299 299 299 300 294 290 290 292 295 297 299 299 300 299 291 290 290 291 291 292 290 290 288 286 285 285 285 285 286 288 290 290 289 289 289 289 289 289 289 289 289 288 288 287
299 299 297 299 298 294 293 293 294 298 298 297 297 297 294 293 292 292 293 292 291 289 287 285 284 284 284 284 285 286 288 289 289 288 288 288 288 288 288 288 288 288 287 287
298 300 291 293 295 294 296 293 294 297 296 297 297 297 295 293 293 293 294 292 292 288 286 285 284 283 283 283 283 284 285 287 288 288 288 288 288 288 288 288 287 287 287 287
294 296 292 292 296 297 299 298 294 294 295 297 296 295 293 294 293 294 293 293 292 288 286 285 283 283 283 282 281 282 283 286 287 288 288 288 288 287 287 287 287 287 286 286
293 295 295 293 294 297 298 296 294 293 293 297 298 297 294 294 296 296 296 293 290 287 285 283 281 281 281 280 279 280 283 285 287 287 287 287 287 287 287 286 286 286 285 285
291 294 295 297 294 298 292 293 293 295 294 293 294 294 295 295 296 293 288 290 286 285 283 281 279 278 278 278 279 281 285 286 286 286 287 287 287 286 286 286 285 285 285 285
293 291 292 296 295 294 295 292 292 294 291 290 290 292 293 293 290 289 284 283 282 281 280 278 277 277 277 277 279 281 284 285 286 286 286 286 286 286 285 285 284 284 284 283
292 293 290 290 297 291 289 289 288 289 292 290 290 290 289 291 294 290 282 281 280 278 277 275 275 275 275 276 278 280 280 282 283 284 286 285 286 285 284 284 283 283 283 282
282 292 292 290 293 295 289 289 289 296 291 290 290 290 290 288 285 282 281 279 277 276 275 274 274 273 273 275 276 277 278 277 280 283 284 284 284 284 284 282 282 281 281 281
287 288 289 293 295 296 287 287 287 287 288 288 289 289 289 288 285 282 280 279 277 275 274 273 273 272 272 274 275 275 275 276 280 281 282 282 282 282 281 281 280 279 279 278
283 285 285 289 289 288 287 287 287 286 288 288 288 287 287 287 287 285 280 278 275 273 273 272 271 271 272 273 273 273 273 276 278 279 278 278 278 278 279 278 277 277 277 277
277 278 282 282 285 287 287 287 286 286 287 287 288 287 287 287 287 286 283 281 277 274 272 271 271 270 270 271 272 273 274 275 277 276 275 275 276 276 276 276 276 276 276 275
281 279 276 280 283 284 287 286 286 286 286 286 284 284 284 284 284 284 283 281 277 274 271 270 270 269 269 270 271 272 273 274 274 273 273 273 274 274 274 274 274 274 274 274
281 281 282 284 281 281 281 275 276 279 278 278 277 279 280 280 280 280 280 277 275 272 271 270 269 268 269 270 270 271 272 273 273 271 271 272 272 273 273 273 274 274 274 273
Wind_Speed
3 5 13 20 15 6 2 5 6 3 5 5 8 14 9 14 6 10 11 12 13 15 15 15 21 28 35 36 36 38 38 38 37 35 31 27 27 28 26 21 18 21 22 21
3 14 18 5 9 11 5 8 14 4 3 5 3 14 10 10 11 10 17 16 16 9 5 5 17 26 33 37 40 38 40 41 41 38 36 23 29 28 26 22 23 23 23 24
12 5 8 10 6 13 17 19 14 4 2 3 3 15 6 9 8 11 12 14 9 8 9 8 9 23 27 30 36 40 41 41 41 39 35 23 18 16 26 26 26 23 24 24
9 5 4 5 14 15 19 12 5 5 4 6 2 9 5 5 8 6 9 6 9 8 7 7 7 11 23 26 28 31 35 37 38 40 36 34 28 20 28 30 32 30 27 27
10 7 7 15 13 12 11 6 10 8 8 3 4 2 5 1 6 11 5 3 3 5 6 8 7 10 16 20 25 30 32 33 34 38 37 36 30 28 21 28 30 29 28 27
4 5 5 7 3 10 7 5 5 4 4 1 8 7 10 6 9 2 3 1 3 5 5 4 5 5 7 14 21 26 30 32 34 36 37 37 35 31 25 27 29 29 28 27
2 5 3 2 4 4 1 6 2 1 2 8 3 7 19 5 6 6 6 6 3 3 5 6 6 4 5 12 18 24 29 31 33 35 37 38 36 35 33 30 31 32 31 31
8 8 10 6 5 8 11 5 5 8 4 2 3 7 7 4 3 5 6 7 5 6 6 8 5 2 3 8 15 21 25 27 31 34 36 37 37 35 33 31 30 32 35 35
6 7 1 4 3 1 6 4 9 4 2 1 4 7 9 6 2 2 7 7 6 5 5 6 7 6 2 6 13 20 22 26 29 33 34 35 35 34 34 31 30 29 31 32
4 6 2 1 1 1 2 2 5 2 5 5 6 5 8 1 6 6 6 7 6 3 6 7 7 9 8 3 8 14 19 23 25 28 32 33 35 34 32 30 29 29 28 29
3 1 1 0 6 12 1 3 3 2 3 5 2 6 7 8 10 16 9 7 6 6 5 6 7 12 11 8 3 9 16 19 22 25 28 29 31 32 31 30 29 28 27 27
3 2 6 7 1 2 1 7 17 5 6 3 1 8 3 8 8 11 9 6 6 5 5 6 6 9 13 15 11 6 10 16 20 21 24 27 27 28 29 29 28 27 27 26
1 3 2 5 2 2 3 4 2 1 2 6 8 7 5 5 8 7 8 6 5 4 6 6 7 7 11 16 16 12 7 11 14 18 22 23 26 26 28 29 27 26 26 26
4 5 6 4 3 1 1 2 5 4 7 8 11 2 2 1 6 6 4 5 5 5 5 5 6 7 10 13 15 15 11 8 12 17 20 23 25 26 27 26 26 26 26 25
2 4 2 5 5 4 5 5 6 13 13 10 12 13 7 6 4 4 2 1 4 5 4 3 3 5 7 10 17 18 13 7 12 17 19 21 21 21 22 22 23 24 25 25
4 3 2 4 7 8 8 11 10 14 13 19 16 19 4 1 3 4 5 5 4 4 3 3 4 4 6 12 14 16 14 7 10 16 17 17 17 18 19 20 20 22 23 24
2 3 1 4 5 2 8 13 15 7 7 15 13 16 7 2 5 7 5 6 6 3 5 5 7 6 11 14 15 18 15 5 9 13 13 14 15 17 18 18 19 21 23 24
5 4 4 3 1 5 6 1 5 14 9 10 14 7 2 4 4 2 5 4 6 4 6 7 6 10 13 18 18 17 11 2 7 10 11 13 14 16 16 17 18 19 22 24
14 3 3 3 3 7 8 4 3 3 5 14 15 14 10 4 4 4 7 7 6 4 6 6 9 10 14 17 18 15 10 5 4 7 9 12 14 16 17 17 19 20 22 22
7 9 3 2 4 4 3 7 9 3 3 12 15 15 16 3 4 1 5 6 7 7 7 8 10 11 15 18 15 11 12 10 7 4 7 10 12 14 16 18 19 19 21 22
3 2 13 11 6 3 8 13 10 3 5 11 11 14 16 9 2 3 4 5 5 5 8 10 11 12 14 15 11 10 9 11 6 6 8 11 11 13 15 17 18 21 23 26
3 2 3 3 7 7 17 5 7 3 4 8 9 13 14 10 6 2 3 4 6 6 11 13 11 12 14 12 8 9 11 7 8 11 14 14 14 15 17 20 22 25 29 30
2 4 2 1 0 2 9 13 6 3 3 8 10 11 11 13 11 9 5 5 4 5 8 10 11 11 13 10 7 7 6 6 11 15 17 17 17 18 20 25 27 26 27 28
4 2 3 4 3 7 8 6 3 6 4 1 2 4 3 3 3 5 6 5 3 4 6 7 10 10 10 10 9 8 6 7 12 18 19 20 22 22 23 24 24 25 24 25
5 5 4 5 4 6 3 6 2 3 6 4 6 4 6 7 7 6 6 4 2 2 3 3 4 5 5 6 7 7 7 8 14 18 19 21 23 24 25 24 24 26 22 27
4 7 4 9 1 1 4 7 9 8 7 7 8 11 10 8 9 8 7 3 0 2 1 1 2 1 3 4 5 5 6 10 15 17 18 20 23 24 25 27 26 21 23 25
Wind_Direction
201 180 216 212 209 223 221 216 231 224 198 171 230 253 241 269 247 250 256 258 252 242 259 233 234 234 227 221 215 213 209 209 207 202 194 201 206 211 220 220 216 220 220 212
121 226 228 192 202 229 220 239 254 266 171 189 291 267 230 233 252 230 253 254 245 249 265 222 218 220 214 210 210 205 209 209 206 205 199 201 205 218 214 212 219 217 216 211
214 200 179 183 186 217 229 231 235 219 151 204 328 284 225 249 246 251 252 260 280 249 261 254 226 218 212 204 201 205 204 209 206 204 201 201 202 212 212 211 212 213 215 212
236 246 195 206 234 199 236 215 194 174 130 250 105 276 275 236 245 238 258 240 258 273 281 279 251 219 210 209 205 203 203 206 205 206 202 201 196 195 211 209 208 208 210 211
227 185 191 223 223 182 244 184 191 196 204 127 218 252 266 349 267 256 230 211 284 299 284 295 278 229 218 206 201 202 201 204 203 207 210 207 204 211 210 211 208 207 207 209
274 326 187 189 79 188 150 91 66 75 119 196 203 170 265 192 216 206 178 40 3 350 356 6 43 134 174 189 192 196 198 203 205 207 210 215 208 208 201 205 205 205 206 208
232 208 207 164 112 60 206 148 151 18 159 232 172 172 250 272 227 191 155 119 87 61 62 53 60 86 150 176 186 191 196 200 207 209 213 216 215 216 215 209 207 204 205 207
228 248 173 178 213 180 191 210 157 198 193 239 115 219 250 254 304 221 139 128 110 67 54 50 48 101 168 187 195 195 201 203 209 211 215 216 219 221 222 220 216 213 212 212
204 251 68 15 102 111 198 218 153 90 141 85 227 269 296 227 278 112 135 124 119 110 71 53 47 58 110 201 211 208 208 210 213 216 218 218 220 222 223 223 221 219 219 218
291 288 17 8 101 80 219 204 83 193 166 215 244 261 235 174 193 183 160 146 133 119 33 26 31 22 12 320 241 222 222 220 219 220 221 221 222 223 226 226 222 220 221 219
350 270 19 22 214 190 130 172 125 136 202 195 233 249 213 232 196 170 168 151 114 68 28 13 21 18 16 3 302 235 224 223 223 224 224 222 223 224 225 227 225 223 221 218
201 227 261 226 33 354 355 213 197 196 203 238 141 258 316 248 165 150 150 155 97 78 41 27 19 19 21 16 7 298 241 227 228 227 224 223 224 222 222 225 226 224 221 218
247 206 307 310 347 12 210 200 197 169 77 198 199 257 0 78 107 136 134 123 88 78 55 35 25 17 10 5 1 349 289 245 234 227 222 219 222 220 222 224 224 222 219 214
324 198 209 200 158 101 309 281 204 163 225 219 238 318 318 131 139 162 140 81 108 100 66 41 21 5 358 4 3 352 332 263 231 221 214 216 219 221 222 223 223 220 215 211
286 261 188 263 230 194 225 221 221 214 234 223 253 243 231 222 179 158 114 215 140 120 92 68 38 346 332 2 0 355 342 293 227 213 211 217 221 221 220 221 221 218 213 209
327 289 346 274 254 217 247 236 221 228 247 249 259 270 260 281 175 185 197 207 172 178 117 97 83 9 346 3 342 339 335 319 224 214 213 214 214 216 217 217 214 211 207 205
248 289 289 265 325 185 269 233 210 200 211 227 236 258 191 207 324 288 233 177 154 125 60 20 28 25 357 346 338 334 336 329 211 211 212 208 205 204 207 207 205 203 200 196
232 189 293 277 12 230 243 300 198 215 32 355 307 309 307 235 223 131 21 73 78 45 33 24 358 9 352 350 352 352 2 36 190 198 201 200 198 198 197 196 196 196 195 190
229 211 226 267 229 305 316 14 1 141 51 10 351 329 293 200 104 47 30 43 75 64 50 17 356 12 352 0 3 7 29 64 146 181 192 195 193 188 187 187 188 187 184 181
215 222 212 205 253 244 256 316 330 265 69 -0 2 5 358 47 161 58 11 29 36 47 42 12 0 18 11 7 11 30 46 66 66 156 184 191 190 183 179 180 175 172 173 165
356 232 216 231 250 279 349 317 304 64 23 343 359 15 19 47 28 329 8 34 32 9 18 19 23 26 12 4 5 48 50 49 53 121 153 160 168 169 169 165 162 156 148 132
212 256 256 242 220 239 331 26 68 349 335 354 4 22 21 27 36 12 38 31 24 13 2 10 20 17 12 16 22 44 55 55 101 123 126 129 138 144 147 147 138 133 128 122
288 170 217 231 168 153 70 111 125 119 28 14 13 12 13 9 4 0 347 4 20 19 4 2 14 8 15 19 29 49 47 87 113 119 117 122 130 132 138 136 129 124 126 124
303 184 187 58 257 202 181 173 146 170 118 202 272 280 292 321 331 328 313 323 20 20 4 3 5 8 3 19 46 68 80 110 123 117 118 122 124 125 129 128 129 130 131 128
193 126 189 253 264 271 124 89 190 174 111 44 352 342 335 345 324 318 315 337 6 12 354 14 24 360 347 18 49 72 99 126 121 121 123 120 122 122 120 124 132 132 136 142
191 199 201 255 347 242 56 64 18 65 37 22 356 335 335 351 334 335 312 13 135 210 234 9 14 105 9 27 56 83 125 144 137 124 121 122 120 117 113 111 106 107 122 125